sat.trackr.live / text

‹ back to catalog

STARLINK-30438

NORAD 58035 · 2023-156H

PAYLOAD ACTIVE UNKNOWN

§ Identity

Operator
Country
US
Launch date
2023-10-09
Launch site
AFWTR
Launch vehicle
Mass (kg)
RCS (m²)

Purposes: comms

External: N2YO · Heavens-Above · Gunter

§ Orbital elements

Epoch: 2026-05-25T04:46:44.851008Z

Period
94.11 min
Inclination
53.1614°
Eccentricity
0.0001712
Mean motion
15.30190111 rev/d
Perigee alt
474.1 km
Apogee alt
476.4 km
Semi-major
6,853.4 km
B*
-8.1962e-6
RAAN
82.7271°
Arg perigee
61.2433°
Mean anomaly
298.8740°
Rev number
14,798

§ Raw data

STARLINK-304381 58035U 23156H   26145.19913022 -.00000602  00000+0 -81962-5 0  99932 58035  53.1614  82.7271 0001712  61.2433 298.8740 15.30190111147989

JSON: /api/v1/satellites/58035 · /tle

For live sub-satellite position, see the globe view (requires WebGL).

§ Visibility from observer

Set your observer location to see the next 7 days of passes ≥ 10°. The values pass through the URL so the page stays shareable.

No JS? Fill the form by hand. The geolocation button needs JavaScript.